Find Starlink 37697

NORAD ID: 100272 Int'l Des: 2026-183 Owner: SPXS Country: US Constellation: starlink operational

現在のビュー

3D地球を読み込み中...

About Starlink 37697

Starlink 37697 (NORAD 100272) is a starlink constellation satellite launched Aug 11, 2026 by SPXS of US. with a mass of 575.00 kg.

次回通過

Passes for default location (London). Set your location on the main map for personalized predictions.

高度履歴

Loading altitude history...

軌道要素

1 A0272U 26183A 26249.46632459 .00124638 00000-0 80537-3 0 9993
2 A0272 53.1583 326.9969 0001206 68.7221 291.3928 15.75237185 4098
Epoch: Sep 6, 2026 • Age: 10 hours

現在のステータス

高度 362.2 km
遠地点 / 近地点 N/A
速度 7.69 km/s
衛星直下点 -51.59°S, 53.96°W
打ち上げ日 Aug 11, 2026
運用期間 26 days
タイプ internet

技術仕様

分類 Payload
質量 575.00 kg
乾燥質量 530.00 kg
総質量 575.00 kg
長さ 0.30 m
直径 4.10 m
スパン 29.00 m
形状 Box + pan
製造者 SPXS
バスタイプ Starlink V2MO
フェーズステータス In Orbit
所有者/国 SPXS/US

Most Searched